Temp
77 80 79 80 83 82 83 84 84 84 83 84 84 84 85 84 83 82 81 80 79 79 80 80 80 80 80 80 81 80 81 81 80 80 80 80 80 79 80 80 80 80 80 80 80 80 81 83 82 83 82 82 82 81 81 81 81 83 81 80 79 80 81
74 77 79 80 80 80 82 84 84 84 84 85 85 84 85 84 83 82 81 80 80 80 80 80 80 80 80 80 81 81 80 81 81 82 81 81 82 80 81 81 80 80 80 81 81 81 83 83 83 82 82 82 81 81 82 81 81 81 81 80 79 79 81
74 76 78 80 79 80 81 84 84 84 84 85 86 85 85 83 83 82 81 81 80 80 81 81 81 81 81 80 80 81 81 81 81 81 81 81 81 84 83 82 81 81 82 83 82 83 84 83 82 82 83 83 82 82 81 81 81 82 80 80 80 80 79
73 74 77 80 79 80 83 84 83 85 86 86 86 85 84 83 85 83 83 82 81 80 80 81 82 82 81 80 81 80 81 81 82 83 83 82 82 82 82 81 81 83 82 82 84 86 87 83 83 82 84 82 81 82 82 82 82 81 81 80 80 80 79
74 76 76 80 80 79 82 83 82 84 85 86 86 84 85 85 85 85 85 84 83 82 82 83 84 83 82 82 84 83 82 82 82 83 84 83 83 83 83 83 83 83 82 84 82 83 82 83 83 81 82 81 81 82 82 82 82 82 80 81 80 81 80
74 73 74 76 80 81 82 84 82 83 84 85 86 85 86 86 85 85 85 84 84 84 84 84 84 83 82 84 84 84 82 82 82 82 83 83 83 83 83 84 84 83 84 84 84 84 82 83 83 83 83 83 83 84 83 83 82 84 81 81 80 81 82
71 73 72 75 78 81 83 84 83 83 84 85 85 84 85 85 84 85 86 85 85 83 83 84 85 84 83 84 83 83 82 83 83 83 84 84 83 83 82 84 83 85 84 84 84 84 84 83 83 84 84 85 83 84 83 82 82 82 81 80 80 79 80
70 72 73 76 78 81 83 83 83 83 83 83 84 82 85 85 86 85 85 85 85 83 82 83 83 83 83 84 84 83 84 84 84 84 83 84 83 83 83 84 83 84 84 84 84 85 86 84 86 84 85 85 84 83 84 82 81 84 82 81 80 80 85
71 72 73 74 76 80 82 82 82 82 81 82 82 80 83 83 84 85 86 85 84 83 82 84 83 84 82 82 82 83 85 85 84 84 84 84 84 85 86 86 85 85 84 85 85 85 86 86 86 83 84 84 83 82 83 82 83 83 82 81 81 80 83
72 72 73 72 75 76 77 78 79 79 80 80 79 78 77 77 78 82 86 84 84 84 84 85 83 83 83 81 82 85 85 84 85 86 86 86 85 86 87 87 86 85 86 86 86 86 85 86 86 84 82 83 81 82 82 82 83 83 83 82 82 82 81
69 71 72 70 72 74 76 77 78 77 79 79 77 76 74 76 76 78 80 80 80 82 85 84 82 83 82 82 83 83 84 85 86 85 85 85 86 87 87 87 87 86 87 87 84 86 85 81 84 84 83 86 83 81 81 82 83 82 83 83 84 83 84
68 70 70 71 70 71 72 73 75 77 77 78 78 77 74 75 76 76 76 76 76 74 75 79 81 83 82 82 82 81 83 84 85 86 86 86 87 87 87 87 87 87 87 86 86 84 80 78 79 80 82 84 83 83 82 82 83 81 81 84 84 84 84
68 68 70 70 69 69 70 72 72 74 76 76 76 76 75 75 76 76 74 74 74 74 75 76 76 80 81 82 80 80 81 83 84 84 86 86 86 88 87 88 88 88 87 87 86 84 79 79 79 80 82 83 83 84 83 83 83 82 81 83 83 84 82
69 67 68 69 70 70 70 69 71 72 72 74 74 73 73 73 73 73 72 72 74 75 75 75 75 77 80 80 79 79 80 80 81 82 82 84 84 84 87 88 87 87 86 84 78 82 84 84 82 83 84 83 83 83 83 82 83 82 82 83 84 83 82
67 66 66 68 68 68 69 70 71 71 71 72 73 72 72 72 72 71 72 73 74 74 74 74 72 72 75 75 74 73 73 75 77 77 78 79 79 82 83 84 85 85 84 82 80 85 84 85 81 81 80 81 83 83 83 83 83 83 83 82 82 83 83
66 66 66 67 67 69 69 69 70 72 71 71 72 71 71 71 71 71 71 72 73 73 73 72 71 71 74 73 73 72 72 73 74 74 74 74 75 75 76 79 78 78 79 81 81 80 82 83 84 84 84 83 82 82 84 82 80 74 74 77 80 81 84
65 65 66 67 66 67 69 70 70 71 71 71 71 70 71 71 71 71 71 71 72 73 73 72 71 72 73 72 72 71 71 72 73 73 72 73 73 74 75 76 77 76 76 76 77 77 78 80 81 82 84 83 82 78 75 72 71 68 65 68 73 82 80
65 66 66 66 66 66 66 68 69 70 71 72 70 71 72 72 72 72 71 71 70 71 72 71 71 72 71 71 70 70 70 70 72 73 72 73 72 73 75 75 75 74 74 75 76 76 78 79 78 79 80 79 77 75 73 69 65 64 65 67 67 72 77
68 68 68 66 66 66 66 67 67 67 68 69 71 71 71 72 71 71 71 70 71 71 71 71 72 70 70 70 70 69 70 70 71 71 71 71 71 74 75 74 74 74 73 73 74 76 75 76 78 77 78 78 74 73 71 69 63 63 65 65 66 67 74
68 68 68 68 68 67 66 65 65 66 67 67 69 70 71 71 70 70 71 72 73 72 72 72 71 70 70 70 70 70 70 70 71 71 71 72 73 74 74 73 72 73 73 74 74 74 74 75 74 75 75 75 72 70 69 67 62 62 63 64 65 66 71
67 67 66 66 66 66 66 65 65 65 65 66 68 69 69 69 70 70 70 71 71 72 72 71 71 70 70 70 70 70 70 71 71 70 70 71 72 72 72 72 72 72 72 72 72 72 73 74 73 74 74 75 73 71 69 66 60 60 62 62 63 66 75
68 68 66 66 66 66 66 66 65 64 65 67 67 68 68 68 69 69 68 69 70 70 71 71 70 70 70 70 70 71 72 71 70 70 69 69 70 71 72 72 72 72 73 72 72 72 73 74 74 73 73 73 72 70 68 65 58 58 59 60 61 69 78
69 68 68 67 67 67 67 67 67 66 67 66 66 67 67 68 68 68 68 68 68 69 69 69 68 69 70 70 70 71 71 71 71 70 70 69 70 71 72 72 72 72 73 72 71 71 71 71 72 72 72 72 71 68 67 65 60 57 57 58 59 69 75
70 70 69 68 68 68 68 68 68 68 68 67 66 67 68 68 67 67 67 66 67 67 67 68 67 68 69 69 69 69 70 70 71 71 71 71 71 71 71 71 71 71 73 71 70 70 70 71 70 71 71 71 69 69 67 66 62 57 57 58 58 68 74
70 70 70 70 69 68 69 69 69 70 69 68 67 67 68 68 68 67 66 66 66 67 66 66 67 68 68 69 69 70 70 70 70 70 70 70 70 70 70 70 70 71 71 71 70 70 70 71 70 69 70 70 69 71 67 65 65 58 57 58 59 69 73
70 70 71 72 72 71 70 70 70 69 69 68 68 70 70 69 68 67 67 67 67 67 66 66 67 68 68 68 68 68 69 69 69 69 69 69 69 69 69 70 69 69 70 70 70 69 69 69 68 67 67 68 68 68 68 66 65 62 56 57 59 63 71
72 72 72 72 71 72 72 72 71 70 70 69 70 71 71 70 68 67 67 67 67 66 67 68 68 68 68 67 67 67 67 67 67 67 68 68 67 68 68 68 68 68 68 68 69 69 68 67 67 67 66 66 66 66 67 68 65 63 56 56 58 60 67
73 73 74 73 73 72 72 72 71 71 72 72 73 72 71 70 68 67 67 67 66 67 69 69 69 69 68 68 68 68 69 68 69 69 69 69 68 66 65 67 68 68 68 69 68 68 68 68 68 67 67 66 66 66 66 69 69 66 61 56 56 57 62
69 69 70 69 70 72 72 70 70 71 71 72 72 71 70 70 67 67 67 66 67 69 69 69 69 69 68 68 68 68 68 69 70 70 70 70 69 67 66 67 67 67 68 67 67 67 67 67 67 67 65 65 65 66 66 66 68 68 66 60 56 56 57
69 70 70 73 73 72 72 69 69 69 70 69 69 69 68 67 66 66 65 64 66 68 69 69 68 68 69 69 68 68 68 69 70 70 70 70 69 68 67 67 67 67 68 67 67 66 66 67 67 66 66 65 64 66 66 65 65 68 68 65 58 56 56
69 68 69 69 70 71 70 68 67 67 67 67 67 67 66 67 66 66 65 65 67 67 68 68 68 68 68 68 68 69 69 69 69 69 69 69 69 68 68 67 68 66 67 67 67 67 66 66 68 67 67 66 65 64 65 67 66 66 69 70 67 60 58
70 70 69 69 68 68 68 67 68 68 66 66 66 66 66 66 65 64 64 66 67 66 67 68 67 67 67 67 68 69 70 69 69 68 68 69 69 69 68 68 69 68 67 67 67 67 67 67 68 67 67 66 66 65 65 66 66 66 67 69 70 68 62
68 68 67 66 66 66 65 65 65 65 66 66 67 67 67 66 65 65 65 66 66 66 66 67 67 68 66 66 68 68 68 68 68 67 68 68 69 70 70 70 68 68 68 67 66 67 68 69 68 66 66 66 65 66 66 65 63 63 63 63 64 65 65
66 66 66 67 66 66 64 64 63 64 64 63 64 65 67 67 66 66 67 69 69 67 66 67 67 66 65 66 67 68 68 68 74 70 65 65 65 66 67 66 66 65 63 63 63 64 64 65 65 64 64 64 65 64 63 61 60 58 57 58 58 61 61
66 65 66 66 65 65 63 63 63 63 63 63 63 63 63 64 65 67 66 68 68 66 66 66 69 66 65 66 66 67 69 67 68 67 64 63 61 58 57 60 64 62 60 60 58 62 65 63 63 64 63 62 62 63 61 61 60 58 53 52 49 52 57
65 65 65 66 66 65 65 64 63 62 62 61 62 63 63 63 64 65 68 66 66 66 65 66 66 65 65 65 65 66 67 67 66 66 65 63 61 59 58 53 47 52 60 59 56 51 50 56 62 63 62 58 57 57 61 61 59 50 44 44 42 42 43
65 65 65 66 65 64 63 63 64 63 62 61 62 62 63 63 64 64 66 66 66 66 65 64 65 65 65 66 65 66 68 67 65 65 63 63 62 61 60 58 56 44 45 52 52 48 42 42 45 51 58 62 58 53 49 51 46 43 42 42 42 41 41
67 66 66 66 65 63 63 62 62 62 61 62 63 62 62 63 64 64 67 66 67 66 65 66 65 63 64 64 65 68 67 64 66 66 65 63 62 62 61 59 57 55 45 43 47 45 41 41 42 46 51 53 56 57 52 47 44 41 41 41 41 41 41
MSLP
1013.38 1013.30 1013.30 1013.18 1013.50 1013.70 1013.98 1014.06 1014.18 1014.46 1014.74 1014.98 1015.34 1015.58 1015.82 1016.06 1016.38 1016.66 1017.10 1017.38 1017.70 1017.98 1017.86 1017.86 1018.02 1018.10 1018.30 1018.38 1018.38 1018.38 1018.46 1018.66 1018.74 1019.06 1019.22 1019.38 1019.42 1019.66 1019.90 1019.94 1020.14 1020.22 1020.22 1020.46 1020.38 1020.34 1020.18 1019.98 1020.10 1020.18 1020.22 1020.30 1020.42 1020.46 1020.46 1020.42 1020.54 1020.54 1020.58 1020.66 1020.74 1020.86 1020.94
1013.86 1013.46 1013.38 1013.22 1013.38 1013.54 1013.66 1013.82 1013.94 1014.38 1014.58 1014.66 1014.98 1015.38 1015.54 1015.90 1016.22 1016.62 1016.98 1017.22 1017.46 1017.66 1017.70 1017.78 1017.94 1018.06 1018.18 1018.26 1018.22 1018.30 1018.50 1018.58 1018.66 1018.78 1018.98 1019.22 1019.26 1019.42 1019.46 1019.66 1019.82 1020.02 1020.02 1020.06 1020.02 1019.94 1019.90 1019.86 1019.94 1020.10 1020.26 1020.26 1020.42 1020.34 1020.42 1020.46 1020.46 1020.58 1020.70 1020.74 1020.86 1021.02 1020.98
1014.02 1013.70 1013.42 1013.26 1013.42 1013.54 1013.58 1013.66 1013.86 1014.18 1014.42 1014.54 1014.70 1015.10 1015.42 1015.78 1015.90 1016.34 1016.78 1017.18 1017.54 1017.62 1017.58 1017.70 1017.78 1017.94 1018.02 1018.14 1018.30 1018.38 1018.38 1018.50 1018.66 1018.82 1019.06 1019.22 1019.26 1019.26 1019.22 1019.34 1019.50 1019.66 1019.70 1019.66 1019.78 1019.86 1019.66 1019.82 1019.82 1019.90 1020.06 1020.26 1020.34 1020.38 1020.42 1020.50 1020.50 1020.54 1020.62 1020.66 1020.82 1021.02 1021.10
1014.14 1013.90 1013.50 1012.98 1013.06 1013.14 1013.22 1013.38 1013.78 1014.02 1014.14 1014.26 1014.54 1014.82 1015.14 1015.50 1015.58 1015.90 1016.26 1016.78 1017.34 1017.58 1017.78 1017.66 1017.66 1017.82 1017.94 1018.18 1018.30 1018.42 1018.42 1018.42 1018.46 1018.66 1018.74 1018.86 1019.02 1018.98 1019.18 1019.30 1019.34 1019.38 1019.62 1019.66 1019.58 1019.50 1019.54 1019.62 1019.82 1019.90 1019.94 1020.18 1020.30 1020.30 1020.42 1020.54 1020.54 1020.54 1020.62 1020.66 1020.82 1020.86 1020.86
1014.26 1013.82 1013.66 1013.22 1013.26 1013.38 1013.38 1013.46 1013.70 1013.90 1014.14 1014.14 1014.30 1014.54 1014.86 1015.10 1015.38 1015.74 1016.06 1016.42 1016.86 1017.34 1017.34 1017.34 1017.34 1017.50 1017.70 1017.82 1018.06 1018.14 1018.30 1018.34 1018.38 1018.38 1018.46 1018.54 1018.62 1018.78 1019.10 1019.30 1019.30 1019.42 1019.42 1019.46 1019.42 1019.50 1019.62 1019.74 1019.82 1019.94 1020.02 1020.06 1020.26 1020.26 1020.38 1020.42 1020.54 1020.50 1020.66 1020.66 1020.90 1020.94 1020.98
1014.58 1014.30 1013.98 1013.62 1013.22 1013.38 1013.30 1013.26 1013.46 1013.62 1013.90 1014.26 1014.38 1014.66 1014.78 1014.98 1015.30 1015.74 1015.94 1016.30 1016.70 1016.90 1017.02 1017.18 1017.30 1017.38 1017.70 1017.70 1017.78 1017.98 1017.98 1018.06 1018.06 1018.14 1018.26 1018.38 1018.58 1018.78 1018.94 1018.98 1019.10 1019.18 1019.34 1019.38 1019.30 1019.42 1019.50 1019.66 1019.82 1019.94 1020.10 1020.14 1020.18 1020.30 1020.34 1020.46 1020.46 1020.46 1020.62 1020.70 1020.86 1020.98 1021.06
1014.90 1014.42 1014.42 1013.90 1013.42 1013.34 1013.18 1013.22 1013.34 1013.34 1013.46 1013.86 1014.02 1014.30 1014.58 1014.86 1015.34 1015.54 1015.74 1016.22 1016.42 1016.90 1017.06 1017.22 1017.14 1017.26 1017.46 1017.46 1017.66 1017.82 1018.06 1018.06 1018.02 1018.10 1018.02 1018.22 1018.30 1018.58 1018.62 1018.66 1018.74 1018.86 1018.94 1018.98 1019.30 1019.30 1019.50 1019.62 1019.74 1019.82 1019.98 1020.06 1020.18 1020.26 1020.34 1020.46 1020.54 1020.46 1020.58 1020.82 1020.98 1020.98 1021.02
1014.70 1014.86 1014.98 1014.02 1013.34 1013.02 1013.02 1013.10 1013.14 1013.38 1013.50 1013.74 1014.14 1014.54 1014.74 1014.82 1015.10 1015.46 1015.74 1015.94 1016.18 1016.58 1016.86 1017.02 1017.02 1017.14 1017.26 1017.30 1017.42 1017.70 1017.82 1017.90 1017.82 1017.90 1017.98 1018.14 1018.26 1018.42 1018.46 1018.50 1018.58 1018.62 1018.70 1019.02 1019.10 1019.10 1019.38 1019.50 1019.50 1019.66 1019.78 1020.02 1020.14 1020.14 1020.22 1020.30 1020.42 1020.42 1020.58 1020.86 1021.02 1021.10 1020.90
1014.54 1014.58 1014.66 1014.50 1013.66 1013.10 1012.94 1012.98 1013.14 1013.38 1013.66 1014.02 1014.38 1014.74 1014.54 1014.78 1015.06 1015.30 1015.46 1015.66 1015.98 1016.46 1016.70 1016.62 1016.74 1016.78 1016.98 1017.22 1017.34 1017.50 1017.54 1017.62 1017.78 1017.82 1018.02 1018.18 1018.22 1018.34 1018.30 1018.34 1018.38 1018.34 1018.70 1018.82 1018.94 1018.90 1019.06 1019.26 1019.38 1019.54 1019.66 1019.86 1019.94 1020.02 1020.14 1020.18 1020.30 1020.30 1020.50 1020.70 1020.90 1021.10 1021.02
1014.70 1014.74 1014.50 1014.66 1013.78 1013.22 1013.26 1013.26 1013.38 1013.62 1013.82 1014.22 1014.62 1014.86 1015.02 1015.10 1015.18 1015.30 1015.30 1015.54 1015.78 1016.18 1016.42 1016.46 1016.62 1016.70 1016.94 1017.14 1017.30 1017.30 1017.42 1017.62 1017.62 1017.74 1017.94 1018.14 1018.14 1018.22 1018.10 1018.02 1018.10 1018.14 1018.42 1018.58 1018.62 1018.86 1018.86 1018.94 1019.14 1019.30 1019.54 1019.74 1019.90 1019.98 1020.06 1020.10 1020.18 1020.22 1020.34 1020.50 1020.66 1020.86 1020.94
1014.50 1014.62 1014.50 1015.38 1014.98 1013.78 1013.66 1013.74 1013.78 1014.10 1013.98 1014.18 1014.74 1014.98 1015.22 1015.14 1015.38 1015.58 1015.38 1015.54 1015.98 1016.10 1015.90 1016.18 1016.42 1016.70 1016.90 1017.06 1017.30 1017.30 1017.42 1017.58 1017.54 1017.78 1017.86 1017.94 1017.90 1017.98 1017.86 1017.86 1017.94 1018.06 1018.26 1018.38 1018.62 1018.70 1018.94 1019.42 1019.18 1019.26 1019.50 1019.74 1019.82 1019.94 1019.98 1020.02 1020.06 1020.22 1020.22 1020.30 1020.30 1020.50 1020.62
1015.10 1014.78 1014.82 1014.78 1015.18 1014.22 1014.58 1014.94 1014.42 1013.94 1014.10 1014.06 1014.50 1014.94 1015.58 1015.14 1015.30 1015.98 1016.26 1016.42 1016.30 1016.98 1017.38 1016.98 1016.54 1016.54 1016.86 1017.02 1017.30 1017.38 1017.46 1017.46 1017.54 1017.70 1017.78 1017.82 1017.78 1017.78 1017.74 1017.78 1017.90 1018.02 1018.02 1018.10 1018.42 1018.70 1019.02 1019.30 1019.90 1020.26 1019.78 1019.50 1019.54 1019.62 1019.78 1019.82 1019.94 1020.06 1020.18 1020.22 1020.22 1020.30 1020.34
1014.82 1014.98 1015.02 1014.94 1015.54 1015.14 1014.74 1015.06 1015.10 1015.14 1014.06 1014.30 1014.66 1014.86 1015.70 1015.50 1015.62 1016.14 1016.86 1016.58 1016.18 1016.54 1016.78 1016.90 1017.34 1016.86 1016.78 1016.94 1017.22 1017.38 1017.38 1017.42 1017.42 1017.38 1017.50 1017.50 1017.50 1017.46 1017.54 1017.66 1017.74 1017.86 1018.02 1017.90 1018.30 1018.54 1019.18 1019.46 1019.42 1019.58 1019.74 1019.50 1019.42 1019.46 1019.54 1019.70 1019.78 1019.94 1020.06 1020.06 1020.14 1020.22 1020.42
1014.78 1015.30 1015.34 1015.26 1015.26 1014.86 1014.82 1015.30 1015.38 1015.70 1015.06 1014.66 1015.06 1015.26 1015.54 1015.82 1015.94 1016.46 1016.70 1017.06 1016.42 1016.46 1016.58 1016.58 1016.90 1017.70 1016.90 1016.98 1017.22 1017.26 1017.42 1017.34 1017.22 1017.14 1017.10 1017.14 1017.10 1017.30 1017.38 1017.42 1017.54 1017.62 1017.70 1018.06 1019.46 1019.10 1018.86 1019.06 1019.22 1019.10 1019.06 1019.30 1019.54 1019.34 1019.34 1019.58 1019.78 1019.90 1019.94 1019.98 1020.06 1020.18 1020.34
1015.34 1015.50 1015.70 1015.74 1015.70 1015.46 1015.10 1015.34 1015.50 1015.70 1016.10 1015.10 1015.22 1015.78 1016.06 1016.06 1016.38 1016.66 1016.70 1016.54 1016.42 1016.46 1016.94 1017.34 1017.62 1018.70 1017.62 1017.34 1017.42 1017.58 1017.62 1017.58 1017.54 1017.50 1017.62 1017.70 1017.66 1017.62 1017.78 1017.70 1017.58 1017.54 1017.70 1018.30 1019.26 1019.10 1018.98 1018.74 1019.06 1019.54 1019.82 1019.38 1019.18 1019.26 1019.34 1019.58 1019.78 1019.94 1019.94 1020.02 1020.10 1020.06 1020.30
1015.22 1015.30 1015.50 1015.70 1015.82 1015.62 1015.66 1015.94 1015.98 1015.82 1015.98 1015.62 1015.34 1015.66 1016.02 1016.30 1016.70 1016.90 1016.74 1016.70 1016.54 1016.54 1017.06 1017.46 1017.90 1018.54 1018.22 1017.66 1017.62 1017.58 1017.62 1017.66 1017.82 1017.90 1018.06 1018.14 1018.22 1018.26 1018.30 1018.34 1018.34 1018.30 1018.46 1018.54 1018.78 1018.70 1018.38 1018.62 1018.82 1018.94 1019.02 1018.90 1019.10 1019.22 1019.54 1019.86 1020.06 1020.38 1020.22 1020.10 1020.10 1020.14 1020.06
1015.34 1015.46 1015.58 1015.70 1015.94 1015.98 1015.98 1016.02 1016.18 1016.38 1016.14 1015.86 1015.82 1015.90 1016.02 1016.18 1016.54 1016.66 1016.82 1016.90 1016.90 1017.02 1017.38 1017.66 1017.70 1018.22 1018.30 1017.94 1017.82 1017.70 1017.74 1017.66 1017.62 1017.70 1018.02 1018.22 1018.34 1018.26 1018.26 1018.42 1018.50 1018.70 1018.78 1018.90 1019.06 1019.10 1018.94 1018.90 1019.14 1019.10 1019.02 1019.22 1019.54 1019.90 1020.14 1020.54 1020.82 1020.62 1020.46 1020.30 1020.22 1020.10 1020.18
1015.78 1015.70 1015.78 1015.90 1016.18 1016.38 1016.54 1016.74 1016.46 1016.06 1015.94 1015.98 1016.10 1016.02 1016.02 1016.26 1016.46 1016.62 1016.86 1017.06 1017.22 1017.18 1017.54 1018.02 1018.34 1018.70 1018.30 1017.98 1017.86 1017.78 1017.78 1017.86 1017.78 1017.62 1017.82 1017.90 1018.22 1018.30 1018.22 1018.34 1018.58 1018.78 1018.90 1019.18 1019.38 1019.38 1019.26 1019.42 1019.54 1019.42 1019.42 1019.62 1019.90 1020.34 1020.66 1020.94 1021.06 1020.70 1020.46 1020.42 1020.38 1020.34 1020.22
1015.22 1015.22 1015.42 1015.94 1016.30 1016.66 1016.74 1016.62 1016.42 1016.22 1015.98 1016.02 1016.10 1016.22 1016.26 1016.22 1016.62 1017.02 1017.18 1017.38 1017.42 1017.50 1017.94 1018.14 1018.34 1019.30 1018.82 1018.22 1018.18 1018.14 1018.02 1017.94 1017.98 1017.98 1017.94 1018.02 1018.14 1018.02 1018.10 1018.34 1018.62 1018.82 1018.90 1019.18 1019.30 1019.30 1019.50 1019.70 1019.70 1019.78 1019.66 1019.86 1020.30 1020.74 1020.90 1021.06 1021.10 1020.78 1020.46 1020.38 1020.30 1020.22 1020.14
1015.38 1015.38 1015.42 1015.66 1016.06 1016.46 1016.70 1016.70 1016.58 1016.46 1016.34 1016.26 1016.22 1016.30 1016.30 1016.30 1016.62 1016.86 1016.86 1016.90 1017.02 1017.10 1017.38 1017.78 1018.14 1018.74 1018.58 1018.34 1018.38 1018.34 1018.30 1018.18 1018.18 1018.34 1018.18 1017.98 1017.98 1018.06 1018.22 1018.42 1018.66 1018.82 1018.90 1019.06 1019.22 1019.46 1019.66 1019.78 1019.98 1019.94 1019.98 1020.22 1020.58 1020.86 1021.06 1021.14 1021.10 1020.90 1020.62 1020.34 1020.18 1020.10 1019.98
1015.82 1015.98 1016.18 1016.30 1016.42 1016.58 1016.74 1016.82 1016.86 1016.74 1016.70 1016.58 1016.46 1016.50 1016.58 1016.82 1016.82 1016.90 1017.02 1016.78 1016.70 1016.78 1017.26 1017.90 1018.78 1018.94 1018.58 1018.46 1018.42 1018.38 1018.42 1018.42 1018.42 1018.62 1018.58 1018.34 1018.26 1018.26 1018.42 1018.54 1018.74 1018.94 1019.10 1019.22 1019.42 1019.62 1019.78 1019.94 1020.14 1020.14 1020.10 1020.26 1020.58 1020.86 1021.18 1021.42 1021.42 1021.02 1020.70 1020.42 1020.18 1020.02 1019.90
1015.86 1016.06 1016.46 1016.58 1016.70 1016.70 1016.70 1016.82 1017.02 1017.14 1017.06 1016.70 1016.54 1016.70 1016.78 1016.94 1016.74 1016.78 1017.02 1016.94 1017.18 1017.58 1017.98 1018.54 1018.98 1019.02 1018.90 1018.86 1018.70 1018.50 1018.34 1018.38 1018.54 1018.70 1018.74 1018.70 1018.66 1018.66 1018.66 1018.70 1018.82 1019.06 1019.14 1019.26 1019.46 1019.54 1019.66 1019.86 1019.94 1020.22 1020.42 1020.58 1020.86 1021.10 1021.38 1021.54 1021.54 1021.30 1021.06 1020.74 1020.38 1020.06 1019.90
1015.94 1016.26 1016.42 1016.58 1016.66 1016.82 1016.70 1016.78 1016.98 1017.10 1017.02 1017.10 1017.02 1016.94 1017.10 1017.06 1017.02 1017.22 1017.42 1017.62 1017.82 1018.02 1018.34 1018.62 1018.98 1019.06 1018.86 1018.90 1018.78 1018.70 1018.58 1018.58 1018.66 1018.82 1018.90 1018.82 1018.78 1018.90 1018.94 1018.98 1019.02 1019.06 1019.06 1019.46 1019.66 1019.86 1020.02 1020.18 1020.22 1020.22 1020.38 1020.70 1021.02 1021.34 1021.62 1021.58 1021.50 1021.34 1021.10 1020.86 1020.62 1020.22 1020.06
1016.06 1016.30 1016.54 1016.74 1016.78 1016.78 1016.82 1016.90 1017.02 1017.06 1017.10 1017.26 1017.30 1017.22 1017.22 1017.26 1017.30 1017.50 1017.90 1018.26 1018.34 1018.42 1018.58 1018.74 1019.02 1018.90 1018.90 1018.98 1018.90 1018.78 1018.70 1018.78 1019.02 1019.18 1019.10 1018.98 1019.02 1019.10 1019.18 1019.18 1019.18 1019.26 1019.22 1019.66 1019.94 1020.10 1020.10 1020.14 1020.38 1020.46 1020.50 1020.74 1021.06 1021.26 1021.58 1021.66 1021.58 1021.34 1021.06 1020.86 1020.66 1020.42 1020.30
1016.50 1016.70 1016.78 1016.86 1016.98 1017.18 1017.10 1017.10 1017.10 1017.18 1017.22 1017.38 1017.66 1017.62 1017.50 1017.58 1017.66 1017.90 1018.34 1018.46 1018.58 1018.58 1018.78 1018.94 1018.90 1018.82 1018.82 1018.90 1018.78 1018.82 1018.82 1018.78 1018.82 1019.10 1019.58 1019.62 1019.26 1019.22 1019.46 1019.58 1019.58 1019.54 1019.54 1019.74 1019.86 1020.06 1020.10 1020.26 1020.54 1020.74 1020.78 1020.86 1021.14 1021.26 1021.50 1021.66 1021.58 1021.42 1021.18 1020.90 1020.70 1020.46 1020.46
1016.82 1016.86 1016.90 1016.82 1016.86 1016.98 1017.14 1017.18 1017.34 1017.54 1017.74 1017.86 1017.98 1017.82 1017.86 1017.86 1018.02 1018.30 1018.54 1018.74 1018.70 1018.90 1019.06 1019.02 1018.94 1018.82 1018.78 1018.86 1018.86 1018.90 1018.94 1018.82 1018.86 1019.18 1019.58 1019.78 1019.46 1019.42 1019.70 1019.78 1019.86 1019.90 1019.94 1020.02 1020.02 1020.22 1020.34 1020.58 1020.82 1021.14 1021.22 1021.22 1021.38 1021.50 1021.58 1021.66 1021.66 1021.54 1021.38 1021.10 1020.94 1020.74 1020.70
1016.54 1016.66 1016.90 1017.06 1017.18 1017.02 1017.18 1017.26 1017.42 1017.70 1017.90 1017.98 1017.94 1017.94 1018.02 1018.06 1018.30 1018.66 1018.74 1018.82 1018.98 1019.22 1019.18 1019.02 1018.94 1018.90 1018.94 1019.02 1019.06 1019.10 1019.10 1019.06 1019.10 1019.38 1019.54 1019.62 1019.66 1019.66 1019.82 1019.98 1020.14 1020.10 1020.06 1020.18 1020.22 1020.38 1020.70 1021.02 1021.22 1021.42 1021.50 1021.50 1021.58 1021.66 1021.66 1021.62 1021.66 1021.70 1021.62 1021.42 1021.22 1021.06 1020.94
1016.38 1016.58 1016.66 1016.74 1016.90 1017.10 1017.34 1017.50 1017.62 1017.66 1017.78 1017.78 1017.90 1018.06 1018.22 1018.38 1018.66 1018.90 1019.02 1019.14 1019.34 1019.26 1019.02 1018.98 1018.98 1019.02 1019.06 1019.10 1019.22 1019.30 1019.34 1019.34 1019.38 1019.46 1019.62 1019.66 1019.70 1019.98 1020.22 1020.26 1020.30 1020.26 1020.22 1020.30 1020.50 1020.74 1020.98 1021.22 1021.38 1021.54 1021.74 1021.82 1021.74 1021.70 1021.78 1021.62 1021.58 1021.58 1021.58 1021.66 1021.58 1021.46 1021.22
1016.86 1017.02 1017.18 1017.30 1017.38 1017.26 1017.38 1017.70 1017.82 1017.90 1018.02 1018.06 1018.18 1018.34 1018.50 1018.66 1018.98 1019.22 1019.30 1019.46 1019.42 1019.10 1019.02 1019.06 1019.10 1019.14 1019.18 1019.22 1019.34 1019.46 1019.58 1019.54 1019.54 1019.62 1019.62 1019.78 1019.98 1020.30 1020.70 1020.62 1020.58 1020.54 1020.50 1020.54 1020.86 1021.14 1021.30 1021.38 1021.54 1021.78 1022.02 1022.10 1022.02 1021.94 1021.90 1021.78 1021.62 1021.62 1021.74 1021.78 1021.78 1021.70 1021.54
1016.74 1016.94 1017.06 1017.02 1017.14 1017.30 1017.50 1017.94 1018.10 1018.30 1018.34 1018.42 1018.54 1018.70 1018.90 1019.06 1019.42 1019.54 1019.66 1019.70 1019.26 1019.10 1019.10 1019.18 1019.26 1019.26 1019.34 1019.42 1019.50 1019.54 1019.58 1019.62 1019.66 1019.74 1019.82 1020.02 1020.26 1020.42 1020.66 1020.78 1020.74 1020.78 1020.82 1020.86 1021.06 1021.34 1021.50 1021.58 1021.70 1021.94 1022.10 1022.22 1022.22 1022.06 1021.98 1022.02 1022.06 1021.98 1021.94 1021.90 1021.82 1021.82 1021.78
1016.78 1016.98 1017.14 1017.38 1017.58 1017.58 1017.82 1018.22 1018.54 1018.66 1018.82 1018.86 1018.90 1018.98 1019.10 1019.22 1019.50 1019.74 1019.90 1019.66 1019.26 1019.26 1019.22 1019.30 1019.34 1019.46 1019.54 1019.54 1019.62 1019.70 1019.78 1019.86 1019.90 1019.98 1020.10 1020.22 1020.30 1020.62 1020.70 1020.78 1020.74 1020.98 1021.02 1021.14 1021.38 1021.46 1021.62 1021.70 1021.78 1021.94 1022.10 1022.26 1022.42 1022.42 1022.38 1022.38 1022.34 1022.30 1022.10 1021.94 1021.94 1021.94 1021.90
1016.90 1017.10 1017.38 1017.62 1017.86 1018.02 1018.22 1018.38 1018.62 1018.86 1019.18 1019.26 1019.18 1019.22 1019.30 1019.42 1019.54 1019.94 1019.90 1019.70 1019.50 1019.34 1019.30 1019.34 1019.50 1019.62 1019.70 1019.66 1019.70 1019.78 1019.86 1020.10 1020.18 1020.26 1020.26 1020.34 1020.38 1020.46 1020.54 1020.66 1020.86 1021.02 1021.06 1021.18 1021.34 1021.46 1021.58 1021.66 1021.74 1021.86 1022.02 1022.18 1022.30 1022.62 1022.70 1022.70 1022.62 1022.66 1022.54 1022.38 1022.22 1022.14 1022.06
1017.26 1017.46 1017.74 1018.14 1018.18 1018.26 1018.54 1018.70 1018.94 1019.14 1019.26 1019.46 1019.38 1019.42 1019.50 1019.58 1019.58 1019.62 1019.62 1019.74 1019.66 1019.54 1019.42 1019.50 1019.70 1019.86 1019.86 1019.90 1019.82 1019.82 1019.86 1020.10 1020.30 1020.38 1020.50 1020.58 1020.66 1020.66 1020.70 1020.78 1021.02 1021.14 1021.34 1021.50 1021.58 1021.66 1021.70 1021.86 1022.02 1022.10 1022.14 1022.18 1022.34 1022.58 1022.74 1022.94 1023.10 1023.10 1023.06 1022.90 1022.70 1022.54 1022.34
1017.70 1017.86 1017.94 1017.98 1018.14 1018.26 1018.50 1018.66 1018.90 1019.10 1019.22 1019.38 1019.42 1019.38 1019.42 1019.50 1019.54 1019.50 1019.50 1019.58 1019.54 1019.58 1019.62 1019.74 1019.86 1020.02 1020.10 1020.06 1020.06 1020.10 1020.10 1020.18 1020.18 1020.58 1020.94 1021.06 1021.06 1021.18 1021.30 1021.42 1021.42 1021.66 1022.02 1022.06 1022.10 1022.14 1022.30 1022.26 1022.38 1022.50 1022.54 1022.62 1022.66 1022.86 1022.94 1023.22 1023.30 1023.34 1023.30 1023.30 1023.14 1022.86 1022.70
1017.86 1017.98 1018.10 1018.26 1018.38 1018.50 1018.82 1018.94 1019.14 1019.18 1019.22 1019.34 1019.30 1019.34 1019.46 1019.54 1019.54 1019.50 1019.50 1019.58 1019.58 1019.62 1019.78 1019.90 1019.90 1019.98 1020.10 1020.14 1020.18 1020.26 1020.18 1020.34 1020.42 1020.78 1021.26 1021.54 1021.82 1022.14 1022.22 1022.02 1021.82 1021.98 1022.26 1022.46 1022.42 1022.22 1022.22 1022.46 1022.66 1022.62 1022.70 1022.78 1022.90 1023.02 1023.26 1023.22 1023.34 1023.54 1024.10 1024.06 1024.02 1023.42 1022.94
1018.14 1018.30 1018.42 1018.42 1018.50 1018.66 1018.90 1019.10 1019.30 1019.50 1019.58 1019.58 1019.42 1019.38 1019.46 1019.50 1019.50 1019.50 1019.46 1019.50 1019.54 1019.62 1019.82 1019.90 1019.98 1020.14 1020.26 1020.30 1020.38 1020.38 1020.42 1020.62 1020.82 1020.98 1021.34 1021.66 1021.94 1022.14 1022.50 1022.94 1022.78 1022.38 1022.14 1022.34 1022.62 1022.54 1022.34 1022.18 1022.42 1022.62 1022.66 1022.90 1023.34 1023.46 1023.10 1023.22 1023.34 1023.86 1024.10 1024.06 1023.94 1023.78 1023.50
1018.34 1018.50 1018.62 1018.62 1018.86 1019.02 1019.18 1019.26 1019.34 1019.50 1019.66 1019.66 1019.58 1019.58 1019.54 1019.54 1019.54 1019.54 1019.54 1019.54 1019.54 1019.66 1019.82 1019.90 1020.06 1020.18 1020.30 1020.46 1020.58 1020.58 1020.50 1020.82 1021.02 1021.14 1021.42 1021.66 1021.82 1021.94 1022.22 1022.46 1022.74 1023.18 1023.26 1023.10 1023.06 1022.74 1022.62 1022.58 1022.62 1022.62 1022.58 1022.58 1023.02 1023.74 1023.74 1023.50 1023.66 1023.70 1023.78 1023.74 1023.66 1023.62 1023.58
1018.10 1018.26 1018.46 1018.62 1018.86 1019.14 1019.26 1019.42 1019.54 1019.66 1019.70 1019.58 1019.58 1019.70 1019.70 1019.70 1019.62 1019.58 1019.58 1019.54 1019.58 1019.62 1019.78 1019.86 1020.10 1020.34 1020.46 1020.50 1020.50 1020.54 1020.66 1020.82 1020.94 1021.14 1021.34 1021.62 1021.78 1021.94 1022.10 1022.26 1022.50 1022.86 1023.50 1023.66 1023.50 1023.46 1023.14 1022.90 1022.82 1022.82 1022.78 1022.74 1022.86 1023.14 1023.78 1024.02 1023.94 1023.86 1023.78 1023.70 1023.58 1023.42 1023.34
Wind_Speed
3 8 6 8 9 8 12 13 11 9 9 12 14 14 14 12 11 11 10 10 10 9 9 8 7 6 6 6 6 5 5 5 4 5 6 5 5 5 5 3 5 5 4 4 4 5 4 5 4 5 4 3 3 3 3 3 3 3 2 2 2 1 1
3 4 7 7 7 7 10 12 11 8 11 12 12 14 12 13 12 11 10 10 10 10 10 9 7 6 6 6 6 6 6 6 4 4 4 6 5 5 6 5 6 6 5 5 4 3 4 4 6 5 5 3 3 3 3 3 2 1 4 3 2 1 1
4 2 5 7 7 7 9 11 9 10 10 11 10 11 13 13 12 13 12 11 10 9 9 8 8 7 6 6 5 7 6 5 5 5 5 5 4 7 6 5 5 5 5 6 4 4 4 3 4 6 6 5 4 4 3 3 2 2 2 3 3 3 3
3 4 4 9 6 7 10 10 8 11 11 11 9 8 12 14 12 12 13 12 11 9 10 8 9 7 7 6 6 6 7 5 6 6 6 5 5 5 5 4 4 4 4 4 3 4 3 4 4 4 5 5 4 4 4 4 3 3 3 4 3 3 2
4 3 2 8 7 7 9 10 8 11 12 11 10 7 11 12 12 12 12 12 11 11 10 10 9 8 6 7 6 6 7 6 6 6 5 6 6 4 5 5 5 4 4 4 3 3 2 5 4 3 4 4 3 5 4 4 5 4 3 3 3 1 4
6 3 3 3 7 6 9 9 7 10 11 13 12 9 12 11 11 14 12 12 11 10 9 9 9 9 8 8 7 7 5 5 5 5 5 6 6 6 5 6 6 4 6 6 5 5 3 4 4 4 4 3 3 4 4 4 3 5 3 3 3 2 4
3 2 6 3 5 9 8 10 8 10 8 11 11 9 11 10 12 12 11 12 12 12 10 11 9 10 7 7 7 8 7 7 6 5 6 6 5 4 4 5 4 6 5 5 5 5 4 4 4 6 5 4 3 3 4 4 4 4 4 4 4 3 2
8 2 8 5 3 5 7 8 8 7 6 9 11 9 13 9 11 11 11 12 12 10 9 10 8 9 8 7 6 9 9 8 7 5 6 7 6 4 5 5 4 5 4 4 5 5 6 5 4 5 5 5 5 4 4 5 5 4 4 4 4 3 3
7 5 4 3 3 1 4 6 8 8 9 11 10 7 10 10 9 10 11 12 10 10 9 10 8 9 7 6 5 8 8 7 6 6 7 7 6 6 6 5 6 6 5 4 5 5 6 5 5 4 6 5 6 6 5 6 5 4 4 5 5 4 4
8 6 5 3 1 5 4 2 3 7 11 9 7 7 6 4 5 5 8 8 9 13 10 11 7 9 9 7 6 8 8 7 7 7 7 8 6 7 7 6 6 6 6 5 3 5 5 6 5 5 5 5 3 4 4 5 5 4 4 6 6 5 5
4 1 4 7 3 4 8 2 8 7 9 9 9 8 3 6 5 3 7 4 2 6 11 10 7 10 9 8 8 6 7 6 7 7 5 4 5 6 5 6 5 6 6 6 5 3 1 4 2 6 6 5 4 3 4 4 4 4 3 3 4 6 5
1 1 2 4 3 7 8 8 0 9 7 8 9 9 4 4 7 6 6 7 9 10 10 7 1 10 8 7 8 5 7 7 6 7 8 7 6 6 4 5 5 5 5 4 6 5 6 4 4 5 4 6 5 5 4 4 4 3 3 3 3 5 6
5 1 3 7 5 1 6 8 9 4 8 8 9 8 8 6 8 9 2 4 9 7 5 5 9 4 8 8 5 6 5 6 6 5 7 8 7 8 6 6 6 5 5 4 2 6 6 5 3 3 7 4 3 4 4 4 4 3 3 3 2 3 1
6 3 5 4 3 5 7 7 4 4 1 10 9 8 8 6 6 6 7 4 8 8 6 5 6 9 5 6 4 3 2 1 1 3 4 6 6 4 7 7 5 5 4 7 7 3 3 5 7 4 1 3 2 3 4 3 2 3 3 2 1 1 3
6 4 4 3 2 3 7 8 4 5 3 6 10 11 8 7 5 3 7 7 8 9 7 7 8 6 2 5 5 4 4 5 6 8 9 9 7 4 5 3 0 1 2 5 5 2 10 9 6 6 3 2 0 2 4 5 3 1 1 3 4 2 2
7 6 5 3 1 1 3 4 3 4 4 3 8 9 8 7 6 4 5 6 7 8 7 7 7 2 3 4 4 3 4 5 6 6 7 7 5 6 7 7 8 9 9 7 7 4 6 1 4 4 5 7 5 3 2 4 5 9 11 8 2 2 3
6 7 6 4 3 3 1 4 3 2 3 4 7 8 7 6 7 6 3 4 6 6 5 4 7 6 3 4 3 3 3 4 4 6 6 4 3 5 6 7 6 6 5 5 6 6 6 7 7 5 4 3 4 7 5 4 5 10 9 11 8 2 2
8 7 7 8 5 2 4 1 2 3 4 4 4 6 7 7 6 6 5 5 3 4 5 5 3 2 2 3 4 3 4 3 2 5 6 5 5 5 6 6 6 5 5 6 6 4 5 7 6 5 5 7 8 7 6 4 6 7 8 7 8 6 3
5 6 8 9 9 6 5 5 6 7 8 7 7 7 6 7 8 6 5 4 2 5 6 6 5 2 1 3 3 3 3 4 4 3 5 5 4 5 7 6 6 5 6 6 4 5 7 5 5 5 5 7 8 7 5 5 7 7 7 6 6 6 3
9 8 9 8 9 8 7 6 6 7 7 8 8 8 7 8 8 6 4 5 5 4 6 5 3 3 2 4 5 3 2 3 4 3 4 5 6 6 7 6 6 6 5 5 6 7 6 6 6 4 5 8 8 7 5 5 7 8 7 7 6 5 2
9 8 8 7 7 7 7 8 7 7 6 7 7 7 8 8 7 7 6 5 6 5 6 5 2 2 2 5 5 4 3 4 4 4 4 5 6 6 6 5 5 6 5 6 6 5 5 5 5 3 3 7 7 6 6 4 8 7 8 7 6 6 2
8 8 8 6 6 5 6 7 6 5 6 5 7 7 6 7 6 8 7 6 7 7 6 6 4 3 3 4 2 2 4 5 6 5 4 4 4 5 5 5 5 6 5 6 6 6 6 6 5 5 6 6 7 7 6 5 10 10 10 10 9 6 2
8 9 9 7 7 7 6 6 6 6 6 6 6 8 8 6 7 8 7 6 5 6 6 6 5 5 6 5 3 3 3 3 4 4 4 4 5 5 6 6 6 6 5 6 6 7 7 6 5 5 7 7 7 7 6 5 9 10 10 10 10 6 2
10 9 9 8 8 8 7 7 7 7 7 8 8 7 7 7 8 8 8 7 5 6 6 5 6 4 6 6 6 5 5 5 3 3 4 4 6 7 6 6 5 5 5 6 6 6 5 6 6 6 6 7 7 6 6 4 6 10 10 10 10 5 2
10 9 9 9 9 9 9 8 9 10 9 10 10 7 7 8 8 9 8 6 6 7 7 6 5 6 6 6 6 6 5 5 7 7 6 5 7 7 7 5 5 5 5 6 6 6 5 6 6 7 6 7 7 10 8 5 5 9 10 11 11 7 5
11 10 10 10 10 9 10 9 9 10 9 10 10 9 8 7 8 9 8 7 7 8 7 6 6 6 7 7 6 6 6 6 8 7 7 6 7 8 7 5 5 5 6 5 5 6 6 7 7 7 6 6 5 5 5 5 5 6 10 12 13 10 6
10 9 10 11 10 7 6 6 8 10 10 8 8 9 8 7 9 8 7 7 8 8 7 6 6 6 7 7 8 8 7 7 8 9 8 7 7 7 6 5 5 5 6 6 6 6 7 8 6 6 6 5 4 4 4 4 5 6 9 11 12 12 8
10 10 8 5 7 7 8 9 8 9 10 8 10 10 8 7 9 8 8 8 8 6 5 6 7 7 7 8 8 8 8 8 8 8 8 8 9 9 8 6 5 5 5 6 6 6 6 5 5 5 5 4 3 4 3 4 6 4 8 9 11 12 12
7 7 7 8 9 7 6 6 7 8 9 9 9 8 7 8 8 7 6 7 5 4 5 5 5 6 6 6 6 6 6 6 7 6 6 6 6 7 6 4 5 5 5 6 6 5 4 4 4 3 3 3 3 2 1 2 3 5 4 7 10 11 12
8 8 8 8 7 6 8 8 7 8 8 7 7 7 6 7 7 6 6 4 2 4 5 5 4 3 4 5 5 5 4 5 5 5 5 5 5 5 6 4 3 3 3 4 5 5 4 4 4 3 3 3 3 2 2 1 1 3 4 6 11 11 12
8 5 6 9 10 9 8 8 7 7 8 7 8 7 6 5 7 6 6 2 3 4 5 4 4 4 4 5 5 5 4 4 4 4 4 3 4 4 3 3 3 4 3 2 2 2 3 4 4 4 4 2 2 1 1 0 1 1 2 7 10 11 11
9 10 10 9 9 8 8 8 8 8 8 7 6 6 5 4 4 6 4 3 3 3 4 5 5 4 3 3 4 5 4 4 3 3 3 3 2 3 3 3 2 2 3 3 3 2 3 4 4 4 4 5 4 3 2 1 1 4 6 6 7 7 10
8 8 9 8 7 7 7 7 6 6 7 8 5 5 5 6 5 5 4 4 3 3 4 4 4 3 3 3 3 3 4 6 5 5 5 5 5 5 4 4 5 5 5 5 4 4 4 4 5 4 3 2 3 5 4 5 5 4 4 5 5 5 5
9 8 6 7 6 6 6 6 7 7 7 7 5 4 4 5 5 4 5 6 4 3 3 4 3 3 3 3 4 5 4 4 7 8 6 6 6 6 6 5 5 6 5 4 4 5 5 5 5 5 4 5 5 5 5 4 4 4 4 4 4 5 4
7 6 6 6 5 4 5 5 6 6 6 5 4 4 4 4 3 3 4 6 5 4 4 4 4 3 4 4 4 4 3 4 2 5 6 6 7 6 5 4 5 6 5 3 2 3 5 5 5 4 4 4 4 5 4 2 2 1 1 1 3 4 4
5 5 4 4 5 6 6 5 5 5 4 4 4 4 4 4 4 4 4 3 3 3 4 3 4 4 4 4 4 3 2 3 5 6 6 6 6 6 6 8 9 7 3 3 5 6 5 3 4 4 5 6 3 3 2 4 3 4 2 1 2 3 5
6 5 5 5 6 5 5 4 5 5 5 3 3 3 4 4 4 4 4 3 2 3 3 3 3 4 5 3 3 1 2 5 6 6 6 6 6 6 6 4 6 10 12 8 4 5 7 9 7 3 4 7 4 4 9 8 7 4 2 1 1 1 3
6 6 6 6 6 5 5 5 4 4 4 4 4 3 3 4 4 4 3 3 3 3 3 2 2 4 5 5 4 6 5 5 5 6 6 6 6 6 6 5 5 4 7 6 3 3 5 6 6 6 7 9 9 7 2 1 1 3 5 5 4 1 3
Wind_Direction
173 180 168 160 173 163 158 166 165 166 152 147 146 153 153 154 154 156 158 161 165 164 167 168 170 165 162 161 168 159 155 162 151 150 155 157 155 157 171 171 159 166 172 181 202 179 198 202 156 166 166 158 153 156 155 147 146 155 161 139 115 81 186
195 190 171 167 169 163 154 161 164 147 154 151 149 154 157 152 155 157 158 164 169 167 168 167 171 170 168 167 165 158 154 160 154 149 146 164 163 174 173 183 165 174 177 184 201 210 190 191 156 163 166 171 160 156 145 144 164 158 149 156 132 180 183
198 214 177 169 167 158 155 154 159 148 154 153 155 154 156 155 158 156 157 164 168 170 169 167 171 168 168 164 161 163 161 157 158 160 157 164 166 172 171 174 172 172 174 172 185 199 180 167 155 155 160 171 161 156 161 165 193 205 173 169 170 175 187
214 212 204 171 169 157 157 160 151 149 154 155 159 148 146 156 155 156 159 162 167 170 173 173 171 169 169 167 165 161 168 168 168 175 165 159 181 167 161 173 161 160 165 175 192 177 167 151 149 157 152 165 166 167 167 179 188 206 171 180 188 188 192
248 234 260 177 167 156 164 160 153 156 154 159 165 146 148 149 150 155 159 160 166 172 177 175 171 172 165 168 170 165 173 177 173 179 169 165 175 179 162 174 173 171 174 176 193 192 165 162 156 157 154 169 170 171 179 178 177 197 180 171 199 187 210
230 244 248 213 164 157 160 166 153 161 152 160 168 152 157 153 151 159 160 161 167 171 174 177 174 172 170 167 170 170 166 179 178 181 167 162 171 175 175 175 183 182 170 186 181 185 169 158 163 161 175 179 182 171 176 181 184 183 175 167 185 195 199
242 306 321 249 174 166 161 165 157 164 155 155 163 147 158 155 155 161 160 164 168 172 178 179 179 171 176 168 176 164 178 180 188 176 164 159 164 170 172 183 176 187 172 168 174 178 175 184 175 172 175 186 187 199 180 183 201 188 165 163 190 218 218
202 197 232 260 217 158 165 163 162 158 141 149 162 152 163 158 157 166 165 166 167 171 180 179 182 169 170 183 171 165 179 178 181 175 170 166 175 170 189 190 189 179 169 161 176 172 185 189 188 172 180 183 191 204 193 185 191 195 161 179 179 216 208
195 205 206 325 338 207 179 162 173 150 144 149 151 151 161 163 163 168 164 166 165 169 180 183 176 166 169 177 176 171 176 172 178 171 172 181 176 187 190 196 181 160 175 183 167 184 179 184 190 171 185 195 191 200 185 182 191 187 174 179 185 194 228
187 204 202 18 325 68 357 148 128 128 142 134 119 116 108 89 90 151 160 152 159 171 177 182 172 167 171 175 186 174 175 174 174 183 178 182 187 190 197 178 169 162 175 185 182 180 177 181 183 177 174 197 170 175 173 176 187 198 173 187 186 191 211
144 231 150 169 303 44 27 36 149 144 143 139 122 112 123 111 80 124 136 120 117 189 177 175 158 168 168 173 186 176 175 178 172 178 190 195 171 196 190 166 167 170 178 184 154 173 113 3 284 179 175 184 195 173 169 176 184 187 202 191 189 193 202
19 227 144 102 357 31 47 12 252 142 140 131 126 135 162 132 108 49 44 74 73 64 4 356 181 166 170 168 174 181 172 182 178 178 184 200 190 192 186 159 175 173 191 159 176 128 109 129 14 320 222 180 175 180 173 180 183 192 206 220 206 208 202
144 159 156 140 138 121 63 41 20 326 124 118 119 128 143 123 106 109 124 93 96 102 118 84 349 208 164 172 159 176 179 182 184 195 186 192 193 186 185 184 177 169 195 184 140 140 120 122 141 195 222 193 187 170 170 167 180 185 211 244 207 184 162
124 62 47 63 117 147 118 82 65 343 47 106 103 91 84 68 72 110 117 94 82 87 95 68 53 313 160 160 140 133 121 99 173 217 182 190 196 175 183 182 176 182 170 131 110 262 162 172 177 218 138 142 199 192 163 155 170 192 201 206 239 164 171
140 119 55 52 56 67 115 114 119 102 327 97 100 95 94 95 99 106 103 99 96 99 73 56 72 313 79 94 91 73 55 66 67 54 42 27 14 18 39 32 173 176 135 68 30 213 180 175 163 224 161 299 20 135 144 159 164 131 172 194 227 207 222
152 158 161 150 47 39 53 75 31 91 148 104 103 103 104 107 101 86 96 101 113 123 119 114 105 265 286 104 109 97 89 89 83 66 53 39 40 49 52 59 63 59 55 72 111 74 43 48 188 189 176 188 186 163 93 56 49 9 360 342 328 285 238
157 159 164 167 83 348 7 101 135 71 48 90 97 100 106 108 105 106 85 86 97 98 99 119 144 197 210 122 108 101 87 95 110 101 85 87 81 72 71 76 71 78 80 85 77 67 55 49 61 42 70 93 86 72 66 53 25 16 17 13 356 322 304
158 159 158 164 143 31 42 6 176 105 89 94 94 92 99 102 113 123 128 110 109 102 80 79 43 307 183 126 118 104 102 105 123 120 131 130 106 88 88 87 83 67 77 77 65 69 74 69 56 57 66 79 80 76 71 66 22 35 38 32 18 3 328
124 150 156 154 147 122 107 100 88 82 71 66 80 92 88 96 94 94 102 100 124 112 107 120 137 221 202 101 90 82 102 106 104 107 113 112 113 111 95 91 86 81 77 74 75 73 73 77 77 67 74 82 83 76 63 53 9 13 40 42 27 13 357
91 87 82 95 121 115 107 83 75 72 75 80 77 79 84 85 90 85 79 130 155 129 113 123 136 196 153 103 102 94 85 90 93 101 115 111 96 91 92 90 91 90 78 74 69 71 71 75 81 72 79 97 94 86 69 50 2 359 12 27 20 7 350
100 94 92 96 96 95 94 92 87 89 84 86 87 86 87 82 95 94 76 76 90 94 105 109 161 233 110 113 124 130 129 115 103 91 71 69 84 90 91 96 94 84 75 69 70 73 78 83 85 73 74 99 101 92 70 41 2 0 3 8 6 350 312
106 104 101 97 102 92 96 97 97 98 102 104 106 98 86 95 93 89 77 59 83 93 111 128 131 106 86 83 72 102 129 136 133 128 100 72 78 96 101 100 102 99 90 85 78 69 77 76 75 68 62 78 82 75 63 36 15 3 358 353 352 344 20
81 89 95 99 100 97 90 102 108 108 106 96 92 100 105 108 100 98 97 92 83 93 96 101 90 87 92 86 78 51 53 85 117 116 98 104 93 81 82 90 90 94 99 93 88 90 83 87 82 79 78 82 88 81 62 38 13 10 3 358 352 345 13
89 90 94 98 101 104 103 100 100 100 100 99 92 94 103 107 111 109 107 104 99 93 86 84 94 105 85 73 70 74 78 79 57 65 91 99 95 94 87 80 72 75 96 108 105 91 91 95 87 74 77 84 84 84 79 57 19 17 12 10 1 346 346
99 102 105 106 108 107 106 102 102 103 99 94 96 97 102 108 107 104 103 104 100 95 95 92 94 101 100 92 86 79 77 80 90 94 72 67 81 85 86 78 80 83 84 87 91 92 90 88 84 80 72 79 88 86 83 69 34 22 22 29 27 32 43
116 111 106 104 103 109 112 111 106 102 98 99 104 112 107 107 105 106 105 102 100 97 93 90 88 84 89 94 88 84 79 83 86 80 94 96 86 82 78 77 82 85 90 81 82 89 86 87 84 81 78 72 74 79 84 84 54 32 30 42 39 34 60
111 113 111 116 123 129 117 114 106 104 107 111 107 104 101 102 101 98 98 97 92 89 95 100 97 95 94 90 86 83 81 78 85 88 77 71 76 72 66 58 71 76 78 79 79 83 86 90 92 90 85 78 73 77 69 81 76 50 36 43 48 44 52
111 108 115 107 96 94 95 95 99 110 113 103 97 99 94 89 93 96 93 91 92 100 102 97 100 103 101 98 96 93 94 94 92 91 92 88 80 72 65 65 57 61 72 79 84 90 97 101 102 100 95 100 102 89 75 71 74 57 43 41 49 51 50
111 115 110 108 110 124 121 106 97 89 86 89 89 83 85 87 86 86 88 88 91 92 89 92 100 107 107 101 96 102 106 105 102 100 104 103 104 108 115 113 101 90 81 81 76 73 81 92 98 101 103 99 94 90 78 41 66 68 73 57 53 53 57
100 114 132 137 129 109 94 89 86 86 84 85 88 88 81 86 88 87 84 80 97 98 100 101 100 99 103 109 112 109 100 98 97 99 103 111 117 123 126 115 97 84 86 96 104 113 100 98 115 118 118 102 83 62 57 29 22 47 54 62 57 52 53
146 135 101 93 93 91 90 94 95 93 84 78 83 90 95 93 102 98 85 59 62 77 93 97 95 93 93 98 108 111 114 106 111 115 107 114 126 124 117 120 138 132 147 140 114 127 138 159 148 148 137 143 142 141 197 332 33 342 59 71 64 53 51
95 90 90 90 86 90 95 94 94 96 102 100 101 100 102 101 103 105 104 76 56 56 71 78 78 75 73 87 103 119 126 120 111 110 136 150 133 123 138 143 121 104 101 100 102 113 124 134 153 153 171 182 174 142 136 73 49 26 12 14 36 39 38
95 97 100 99 104 103 105 110 111 108 106 105 102 104 111 121 126 133 133 116 100 77 69 75 83 85 73 73 77 79 101 95 88 72 62 64 69 61 64 70 66 61 53 39 39 37 41 49 54 50 46 64 96 109 89 64 47 34 15 5 10 17 19
102 101 104 113 121 124 122 117 116 113 109 110 117 125 124 121 131 147 145 135 135 130 113 107 101 103 111 93 72 72 79 109 114 90 71 55 57 58 66 63 74 78 64 47 30 70 71 66 59 59 62 66 83 96 89 78 55 36 15 4 357 360 11
110 112 116 116 111 103 104 105 104 108 108 105 100 93 86 84 93 95 107 123 138 150 131 139 141 137 112 97 89 90 103 90 74 104 103 91 73 59 36 34 68 93 83 45 26 49 92 96 83 80 73 80 72 92 91 71 82 75 69 40 16 6 8
93 94 86 87 91 92 93 92 97 95 90 89 93 98 109 114 104 97 91 94 101 121 127 130 133 130 116 116 119 126 125 101 87 107 116 108 105 99 77 51 45 22 97 112 47 37 22 82 113 121 116 95 57 12 103 143 157 126 91 347 3 41 58
101 93 89 91 92 87 93 101 105 108 110 115 97 109 117 107 105 106 112 111 99 106 129 148 151 149 138 112 101 93 143 121 98 96 112 119 123 115 109 93 42 37 34 53 82 56 62 56 60 76 137 121 119 54 47 73 104 140 187 196 221 191 161
112 107 110 105 109 111 109 110 113 121 131 133 140 139 113 106 106 115 117 126 147 157 169 191 112 103 114 120 106 85 86 97 110 108 106 119 138 139 138 129 116 54 14 11 38 57 67 77 77 80 105 123 128 136 71 26 272 201 205 212 211 249 332